STARLINK-33718 (63476 NORAD) Tracking and Keplerian Element Data

This shows tracking and keplerian element data for the satellite.

Feedback or suggestion? Click here.




ElementValue
Catalog63476
NameSTARLINK-33718
Epoch Orbit4079
Epoch Day354.0082694
Epoch Year2025
RAAN349.4976
Inclination43.0005
Eccentricity0.0001166
Argument of Perigee269.6281
Mean Anonmoly90.4437
Mean Motion15.27591089
Decay Rate0.00024651
L11 63476U 25070S 25354.00826940 .00024651 00000+0 90201-3 0 9990
L22 63476 43.0005 349.4976 0001166 269.6281 90.4437 15.27591089 40794



Live tracking and technical data element details for STARLINK-33718 (NORAD 63476). STARLINK-33718 can be tracked NOW for your location showing map with azimuth and elevation plus other details from your city location.







IsCatalogInMostPopularTable: catalog: 63476, numindb: 6
Update: records affected: 1



GetName: 63476 STARLINK-33718

Hit Count: updated at: Wed, 15 Apr 2026 01:46:07 GMT